Theta_e
308 307 305 306 306 305 305 303 299 298 298 300 304 306 305 306 309 308 308 312 314 311 309 309 309 308 307 303 303 302 302 303 305 305 306 305 307 305 304 308 308 308 308 308 309
308 307 304 303 301 300 300 301 299 298 299 301 305 306 305 308 309 306 308 310 310 310 310 309 308 305 303 304 304 301 301 306 306 306 306 306 307 306 308 307 310 308 308 308 308
308 307 305 301 300 300 299 298 298 298 299 302 306 306 307 310 308 307 309 310 309 309 310 310 309 304 305 303 305 306 306 307 308 308 306 307 308 308 309 311 309 308 308 308 308
309 308 305 301 299 299 299 298 298 298 300 303 306 306 309 309 314 306 309 309 308 310 310 306 304 305 305 306 305 308 307 308 308 308 308 308 307 309 309 309 306 305 306 308 308
308 308 307 302 299 299 299 297 297 298 301 305 306 307 310 305 306 307 309 309 309 309 308 306 305 304 306 305 305 307 308 308 307 307 307 307 309 309 310 307 305 305 308 309 308
308 307 306 302 300 299 298 297 298 298 302 305 306 308 309 309 306 306 309 309 309 309 308 307 306 305 305 306 306 306 307 307 308 309 308 310 310 310 309 305 305 305 308 308 308
308 307 307 303 300 300 298 297 298 299 303 305 306 308 304 305 306 307 310 310 309 309 308 308 308 307 306 306 305 306 307 307 308 309 310 309 311 311 308 306 305 306 307 307 307
308 307 307 304 300 300 297 297 298 302 303 305 307 306 304 305 305 307 309 310 310 310 309 309 308 305 306 305 307 309 306 310 310 308 309 308 310 310 306 306 305 305 307 307 307
308 307 307 305 300 300 297 297 300 302 303 305 306 306 306 305 305 306 307 308 310 310 311 311 308 306 308 308 305 302 308 306 310 309 308 309 309 308 306 305 304 303 306 306 306
308 307 306 305 301 299 297 298 301 302 302 302 303 304 304 305 305 306 307 309 309 309 309 308 302 303 303 306 299 303 304 307 307 308 309 310 309 306 307 304 302 302 305 306 306
308 307 307 305 302 299 299 299 301 300 301 302 303 305 305 305 306 306 307 308 309 306 311 306 304 303 307 307 304 300 300 304 306 309 310 309 308 308 309 304 302 301 302 304 305
308 307 307 303 302 299 299 300 301 301 301 301 302 303 303 304 307 305 307 309 307 308 307 304 306 307 307 307 306 305 305 301 303 305 308 301 308 308 310 307 303 301 300 301 302
309 308 307 303 302 298 298 301 301 303 301 301 302 303 303 305 306 305 306 308 308 310 308 305 307 307 311 310 308 311 309 307 306 306 308 308 305 306 311 307 302 300 298 299 300
309 308 307 303 300 298 299 301 299 303 302 303 302 303 304 305 305 305 304 306 307 308 307 308 308 310 310 310 306 310 308 307 309 309 305 304 302 302 311 310 304 300 298 297 297
309 308 307 303 300 301 301 300 300 305 315 303 301 302 303 304 304 304 305 306 307 307 304 307 309 309 310 308 306 309 307 309 310 311 308 303 305 305 311 311 307 301 299 296 296
310 308 306 305 301 301 300 299 303 310 315 301 301 304 304 304 305 304 305 303 304 303 304 306 305 306 306 305 305 305 308 308 306 305 302 304 304 300 307 311 308 302 299 297 296
310 308 306 304 301 301 299 301 311 316 301 299 301 304 303 304 306 305 305 304 303 299 300 305 306 305 304 307 306 306 306 307 305 303 304 303 304 299 306 309 305 301 299 297 295
310 308 305 304 299 300 302 305 317 303 298 299 302 303 303 303 304 306 303 302 304 300 298 301 302 305 304 306 306 307 304 303 304 305 300 301 303 301 308 307 302 299 297 297 296
309 307 305 304 300 299 301 315 314 303 300 301 302 302 301 303 303 305 303 300 302 302 303 304 305 304 304 305 305 307 303 303 305 295 304 304 302 299 308 306 301 300 297 296 295
306 303 300 302 300 301 300 308 302 299 300 301 303 300 298 299 302 303 302 302 303 302 303 304 303 303 305 304 305 307 303 305 303 300 301 302 302 301 303 305 305 301 298 296 294
305 305 299 300 299 298 297 300 296 299 300 301 300 297 300 299 299 302 302 303 302 303 303 303 301 301 303 304 304 305 305 303 303 302 305 304 305 297 301 302 302 304 300 296 294
304 304 298 299 295 288 293 295 297 297 298 299 298 300 300 298 299 299 302 302 301 302 304 302 301 300 303 304 303 305 305 302 304 306 301 304 303 299 301 303 300 301 302 297 294
301 296 296 296 295 290 289 291 295 297 298 298 299 301 299 301 301 302 300 299 301 302 303 303 299 297 301 303 301 304 303 303 301 300 304 303 305 299 300 302 303 301 301 297 294
298 298 296 295 290 294 291 292 295 295 297 297 299 298 299 300 295 300 301 299 300 303 304 302 301 304 308 306 301 301 303 303 302 300 302 302 302 302 301 300 301 303 301 297 295
297 299 296 298 295 294 297 295 296 295 296 297 299 299 300 298 300 296 298 299 300 304 301 298 298 297 300 300 301 303 304 303 302 301 305 305 302 301 301 301 298 297 301 298 296
299 296 294 296 297 297 299 295 300 297 297 298 298 299 298 300 301 300 299 298 302 301 301 298 293 290 293 295 296 301 300 302 302 303 300 301 302 301 299 297 297 297 298 299 297
299 296 300 298 298 298 299 299 298 298 296 298 299 299 298 298 297 296 295 296 298 300 295 294 290 294 299 288 293 303 298 299 301 301 302 304 303 301 302 300 300 300 297 298 298
Wind_Speed
6 6 6 8 9 10 11 11 10 10 9 9 8 7 5 6 9 14 10 12 13 17 11 6 10 6 7 5 6 3 5 2 2 4 2 3 3 4 3 2 3 3 3 13 30
7 7 7 7 8 9 10 11 10 10 9 8 7 7 6 5 5 13 14 14 13 11 6 8 5 7 5 5 4 5 4 4 2 3 2 1 1 3 4 6 3 6 10 22 22
9 8 8 7 7 8 9 10 10 9 8 8 6 6 6 3 2 3 15 15 13 9 2 3 3 4 5 4 5 3 4 4 1 2 3 1 1 1 4 3 2 11 18 18 22
10 9 8 8 7 7 8 9 9 9 8 6 6 5 4 2 1 6 14 16 12 6 3 5 5 4 4 5 4 6 4 3 3 2 2 2 1 0 2 4 8 10 14 17 16
11 11 11 9 8 6 7 8 8 7 6 5 5 5 1 5 1 7 11 14 9 4 8 2 5 4 5 5 3 7 3 4 2 1 3 1 0 1 2 5 10 13 13 14 15
12 12 11 10 8 7 6 7 8 6 4 4 6 3 1 2 3 8 9 12 13 12 11 7 3 4 6 4 4 3 5 4 4 2 2 1 0 1 3 7 9 10 14 14 14
13 11 11 10 9 8 6 7 7 4 3 3 5 4 5 2 3 7 6 9 11 10 4 6 2 5 4 5 4 5 4 2 4 2 0 2 2 3 4 7 9 12 13 14 15
14 12 10 10 9 9 6 5 5 3 2 1 3 2 2 1 4 6 4 3 6 7 7 6 10 7 5 4 6 4 5 2 2 5 1 2 2 1 6 6 11 13 13 15 16
16 13 13 10 9 9 6 3 2 2 1 1 1 2 1 1 2 5 6 3 4 4 5 5 5 5 5 4 4 7 2 2 3 3 5 5 3 3 5 8 10 11 12 13 18
15 14 14 10 9 8 6 0 1 1 2 3 2 3 1 0 3 5 4 4 4 2 3 7 5 4 5 5 2 2 3 2 2 5 5 4 5 6 5 7 8 10 12 12 13
16 15 14 10 7 6 3 3 3 3 7 2 1 2 1 2 2 4 5 3 2 6 3 5 7 3 2 3 4 6 4 1 3 2 3 3 4 5 3 6 8 9 10 11 12
16 16 13 9 8 6 4 2 3 3 4 2 2 2 1 0 2 4 6 2 3 4 2 6 3 3 6 4 4 4 3 3 4 4 3 3 4 4 3 2 3 6 8 10 12
18 14 13 9 8 7 6 4 4 5 4 1 0 1 1 1 1 2 4 1 4 4 3 5 4 5 2 2 2 2 5 1 3 5 1 4 6 5 1 1 5 5 6 6 8
21 15 12 10 6 5 4 8 6 4 4 2 1 1 0 2 2 1 3 1 4 5 4 5 2 2 2 2 1 3 1 2 3 4 1 3 3 4 3 4 4 7 7 7 9
22 18 14 17 2 4 3 12 9 1 2 2 2 0 1 3 3 3 2 3 4 4 4 1 5 2 1 2 1 2 2 2 3 3 3 3 3 6 1 4 2 5 7 7 8
24 20 18 12 12 5 11 14 4 5 6 4 3 3 4 1 1 1 2 5 3 5 6 2 1 1 2 2 2 1 1 3 4 1 3 3 3 4 3 4 2 2 3 5 7
26 23 21 16 3 12 15 5 4 4 4 3 4 5 3 3 2 1 3 4 5 6 1 4 1 1 1 2 2 4 3 2 4 4 4 2 1 7 3 4 6 6 5 2 3
33 27 25 19 8 16 8 4 4 2 6 2 4 4 5 5 2 2 4 2 3 4 4 6 4 2 2 1 3 2 4 4 4 1 4 3 3 2 1 3 3 4 5 3 1
33 30 22 23 11 16 4 3 8 7 7 10 4 5 2 3 4 3 5 4 7 8 5 5 2 1 2 0 0 3 0 2 6 3 3 2 6 2 4 4 5 7 6 6 4
31 17 7 16 14 6 3 9 5 4 6 3 6 4 8 7 5 5 7 4 5 6 1 6 5 1 1 2 2 2 3 3 3 2 3 4 5 4 6 9 8 8 9 8 6
24 5 9 16 14 3 5 6 4 5 2 6 6 4 5 8 7 6 6 1 3 4 3 4 4 3 1 4 6 2 1 3 2 3 3 2 6 5 3 3 9 9 8 8 8
10 5 12 22 3 1 4 7 4 4 2 2 4 4 7 6 6 3 9 3 5 7 8 4 5 4 1 2 1 1 4 5 3 3 1 3 6 4 6 3 6 9 9 8 7
7 3 4 1 6 3 2 1 4 4 5 6 4 2 3 6 5 5 4 2 1 6 7 7 1 3 7 4 4 4 5 4 4 3 4 3 5 1 4 5 4 7 8 8 9
5 5 2 1 1 7 6 4 4 2 4 4 5 5 4 3 4 6 4 1 2 1 3 2 3 5 7 4 5 5 5 5 5 3 3 6 8 6 5 6 5 6 6 8 9
3 5 5 9 9 2 9 10 8 6 3 4 1 5 7 4 3 3 2 3 3 3 3 4 4 2 3 4 1 4 6 10 8 5 6 5 6 8 6 5 7 7 5 7 8
7 6 2 4 16 8 14 12 18 6 9 6 5 10 7 7 9 9 9 5 6 2 5 1 2 3 3 4 5 4 5 8 6 4 8 5 12 8 9 5 5 7 6 9 10
6 5 7 13 17 14 16 13 11 12 5 3 10 7 6 5 4 3 6 7 5 8 4 6 6 3 4 3 3 6 11 13 7 6 8 7 11 4 3 6 5 5 8 9 9
Wind_Direction
301 315 327 336 341 341 341 343 348 351 359 1 1 358 360 7 20 55 40 336 323 338 344 344 35 50 52 58 38 85 64 116 156 149 183 340 11 337 299 354 328 135 244 277 308
287 298 311 323 333 337 338 340 341 346 353 358 0 4 9 6 38 44 0 350 341 336 352 28 9 25 51 26 23 64 86 165 196 153 167 177 140 302 9 344 315 301 290 300 311
274 286 300 310 326 334 336 335 338 342 351 352 357 6 358 2 83 333 359 357 354 344 342 12 22 63 62 26 6 48 117 155 170 164 145 98 61 57 345 334 261 305 309 312 317
265 273 291 299 313 328 330 331 334 340 345 351 347 357 359 3 132 340 359 2 7 10 87 46 41 55 70 57 12 90 77 145 160 84 122 149 153 265 57 268 300 293 293 310 320
255 260 287 291 300 319 326 325 331 335 340 349 352 354 9 46 320 350 3 13 22 44 52 65 59 112 97 94 70 78 138 82 94 131 140 129 43 285 261 325 310 306 317 326 328
252 263 278 286 294 309 321 325 327 332 341 3 359 19 24 91 349 351 359 25 37 59 49 38 95 105 88 71 72 116 106 88 38 133 187 21 141 353 332 329 317 334 338 334 334
245 256 273 281 290 301 317 321 321 327 324 1 7 37 55 141 12 360 15 31 34 46 66 43 93 70 132 95 138 115 80 62 20 338 281 175 31 352 313 332 337 341 340 333 335
242 246 262 277 283 296 306 318 318 321 316 338 4 47 94 3 343 5 20 32 38 52 72 56 80 93 58 116 39 57 54 59 324 11 4 90 344 316 334 353 347 346 347 339 337
239 241 257 273 277 292 296 319 313 326 322 48 48 74 117 351 348 358 19 3 5 44 55 67 66 77 33 72 37 17 118 11 358 52 359 44 292 346 349 18 344 349 345 341 340
240 238 248 269 274 289 299 168 101 93 83 90 70 40 24 258 325 347 10 10 40 346 34 41 50 71 38 53 217 233 71 14 314 340 9 10 324 323 352 24 345 347 343 349 345
238 233 244 260 264 284 299 135 53 356 49 82 94 103 69 309 359 18 1 355 37 46 64 17 67 91 126 87 114 116 98 36 262 296 23 358 291 306 350 19 357 350 342 344 344
232 229 235 247 254 269 254 177 202 144 110 51 101 61 82 342 76 7 2 94 69 98 54 28 102 171 133 137 111 100 104 316 298 305 63 0 296 305 0 5 0 337 332 339 343
225 222 228 231 247 252 221 225 176 135 93 172 133 161 203 8 112 320 8 75 100 69 20 128 159 142 178 108 125 86 112 144 184 327 333 326 316 331 246 45 352 355 322 341 343
216 212 215 213 238 207 219 200 174 147 70 205 203 296 164 119 37 326 17 107 50 134 119 89 89 117 99 67 36 73 150 133 94 48 249 46 264 302 267 302 349 347 340 340 346
210 206 201 206 280 201 199 165 157 108 356 110 171 335 29 143 132 355 20 29 123 118 114 225 142 128 96 103 64 160 185 142 112 78 51 319 81 267 339 275 295 322 335 347 350
198 198 191 207 251 238 164 148 125 52 254 163 130 159 110 53 56 42 62 49 122 83 38 90 98 92 154 68 74 14 107 52 57 60 33 299 119 274 206 208 190 248 307 340 348
192 192 192 200 232 187 162 110 70 172 356 236 179 163 138 143 120 185 151 136 147 96 341 14 1 337 73 93 73 74 65 357 355 12 213 209 16 242 196 202 185 192 223 249 338
180 183 194 207 229 173 145 70 161 215 205 161 130 104 170 156 163 158 118 160 235 101 112 142 311 155 2 155 163 85 129 146 196 262 282 263 252 268 196 140 139 159 185 202 294
168 172 186 207 199 175 89 144 203 198 162 146 88 104 239 145 143 156 205 214 208 181 135 136 10 6 65 48 337 133 27 156 111 52 27 272 287 274 153 182 190 190 192 222 208
152 144 170 190 185 160 88 212 202 177 132 146 148 153 175 182 139 170 178 208 197 192 193 192 102 4 21 46 22 79 149 60 1 81 303 293 282 245 225 227 211 212 208 203 201
138 126 160 167 154 61 193 216 201 215 172 155 163 134 194 171 157 187 203 274 173 146 112 150 103 267 31 197 180 115 99 61 116 125 169 307 273 209 214 227 212 219 211 197 190
137 141 164 154 127 222 176 189 150 158 183 167 120 116 165 160 142 189 204 245 175 152 159 199 119 131 189 10 18 152 159 145 121 232 216 149 273 198 226 241 196 214 200 188 183
123 106 133 153 184 227 310 24 158 138 194 165 169 164 168 164 134 178 187 28 195 157 168 178 300 69 351 0 350 219 191 145 124 111 210 147 260 181 251 270 225 194 199 188 183
118 125 121 215 287 155 146 197 174 242 171 157 139 104 115 109 0 157 138 151 16 155 93 82 123 160 183 175 130 185 179 169 135 119 176 236 299 292 261 248 234 213 199 194 187
144 166 175 181 213 208 182 164 156 173 242 200 84 207 169 119 80 149 126 120 42 160 74 115 157 85 36 51 87 174 173 173 186 190 171 201 217 264 258 259 247 228 191 195 197
142 142 106 159 162 178 197 198 183 172 150 216 198 179 192 157 184 183 144 187 183 167 149 73 162 109 337 352 25 269 222 202 217 235 268 286 284 236 257 252 245 242 215 219 208
120 118 134 164 176 182 205 180 189 161 224 218 182 125 187 207 105 66 80 94 124 142 141 135 138 111 250 351 16 308 216 187 186 203 161 191 228 134 266 280 256 234 196 226 223